When you browse on this site, cookies collect data to enhance your experience and personalize the content and advertising you see.
Visit our Privacy Policy to learn more. By continuing to use the site, you agree to this use of cookies and data.
  • In United Kingdom
  • List of Countries
  • For 7 days
  • Water Temperature
  • Weather Map
  • Weather Widgets
  • user-avatar
    Login

    Hourly Weather Cairo

    Today, 20 September, Friday

    Time Temperature Precipitation Wind Pressure Humidity
    00:00 +23°C° 0 mm 5 mps 756 mmHg 83%
    01:00 +23°C° 0 mm 4 mps 756 mmHg 84%
    02:00 +22°C° 0 mm 4 mps 756 mmHg 87%
    03:00 +22°C° 0 mm 4 mps 756 mmHg 86%
    04:00 +21°C° 0 mm 4 mps 756 mmHg 86%
    05:00 +21°C° 0 mm 4 mps 756 mmHg 86%
    06:00 +22°C° 0 mm 4 mps 756 mmHg 78%
    07:00 +25°C° 0 mm 4 mps 756 mmHg 71%
    08:00 +26°C° 0 mm 4 mps 756 mmHg 63%
    09:00 +28°C° 0 mm 4 mps 756 mmHg 53%
    10:00 +32°C° 0 mm 4 mps 756 mmHg 44%
    11:00 +34°C° 0 mm 4 mps 755 mmHg 34%
    12:00 +35°C° 0 mm 4 mps 755 mmHg 29%
    13:00 +37°C° 0 mm 4 mps 754 mmHg 25%
    14:00 +38°C° 0 mm 3 mps 754 mmHg 20%
    15:00 +39°C° 0 mm 5 mps 754 mmHg 22%
    16:00 +38°C° 0 mm 6 mps 754 mmHg 23%
    17:00 +38°C° 0 mm 7 mps 754 mmHg 25%
    18:00 +34°C° 0 mm 7 mps 755 mmHg 34%
    19:00 +30°C° 0 mm 7 mps 755 mmHg 42%
    20:00 +27°C° 0 mm 6 mps 756 mmHg 51%
    21:00 +26°C° 0 mm 5 mps 756 mmHg 58%
    22:00 +25°C° 0 mm 5 mps 756 mmHg 64%
    23:00 +23°C° 0 mm 4 mps 756 mmHg 70%

    Tomorrow, 21 September, Saturday

    Time Temperature Precipitation Wind Pressure Humidity
    00:00 +22°C° 0 mm 4 mps 756 mmHg 73%
    01:00 +22°C° 0 mm 4 mps 756 mmHg 77%
    02:00 +21°C° 0 mm 3 mps 755 mmHg 80%
    03:00 +21°C° 0 mm 3 mps 755 mmHg 82%
    04:00 +21°C° 0 mm 3 mps 755 mmHg 84%
    05:00 +20°C° 0 mm 3 mps 756 mmHg 86%
    06:00 +22°C° 0 mm 3 mps 756 mmHg 80%
    07:00 +24°C° 0 mm 3 mps 756 mmHg 74%
    08:00 +25°C° 0 mm 4 mps 756 mmHg 68%
    09:00 +28°C° 0 mm 4 mps 756 mmHg 56%
    10:00 +30°C° 0 mm 4 mps 756 mmHg 45%
    11:00 +34°C° 0 mm 5 mps 756 mmHg 34%
    12:00 +35°C° 0 mm 5 mps 755 mmHg 30%
    13:00 +37°C° 0 mm 5 mps 755 mmHg 26%
    14:00 +39°C° 0 mm 5 mps 754 mmHg 21%
    15:00 +38°C° 0 mm 6 mps 754 mmHg 24%
    16:00 +38°C° 0 mm 8 mps 754 mmHg 26%
    17:00 +37°C° 0 mm 9 mps 754 mmHg 29%
    18:00 +33°C° 0 mm 8 mps 755 mmHg 40%
    19:00 +29°C° 0 mm 7 mps 755 mmHg 51%
    20:00 +27°C° 0 mm 6 mps 756 mmHg 62%
    21:00 +26°C° 0 mm 5 mps 756 mmHg 70%
    22:00 +25°C° 0 mm 4 mps 756 mmHg 78%
    23:00 +23°C° 0 mm 4 mps 756 mmHg 85%

    Day after tomorrow, 22 September, Sunday

    Time Temperature Precipitation Wind Pressure Humidity
    00:00 +23°C° 0 mm 4 mps 756 mmHg 87%
    01:00 +22°C° 0 mm 3 mps 756 mmHg 88%
    02:00 +22°C° 0 mm 3 mps 756 mmHg 90%
    03:00 +22°C° 0 mm 3 mps 755 mmHg 90%
    04:00 +21°C° 0 mm 3 mps 755 mmHg 90%
    05:00 +21°C° 0 mm 3 mps 755 mmHg 91%
    06:00 +22°C° 0 mm 3 mps 756 mmHg 85%
    07:00 +24°C° 0 mm 3 mps 756 mmHg 79%
    08:00 +25°C° 0 mm 4 mps 756 mmHg 73%
    09:00 +27°C° 0 mm 3 mps 756 mmHg 62%
    10:00 +29°C° 0 mm 3 mps 756 mmHg 50%
    11:00 +31°C° 0 mm 3 mps 755 mmHg 39%
    12:00 +34°C° 0 mm 3 mps 755 mmHg 34%
    13:00 +35°C° 0 mm 3 mps 754 mmHg 28%
    14:00 +37°C° 0 mm 4 mps 754 mmHg 23%
    15:00 +36°C° 0 mm 5 mps 754 mmHg 24%
    16:00 +36°C° 0 mm 6 mps 754 mmHg 26%
    17:00 +35°C° 0 mm 7 mps 754 mmHg 27%
    18:00 +33°C° 0 mm 7 mps 754 mmHg 38%
    19:00 +29°C° 0 mm 6 mps 755 mmHg 48%
    20:00 +27°C° 0 mm 5 mps 755 mmHg 58%
    21:00 +26°C° 0 mm 5 mps 755 mmHg 64%
    22:00 +25°C° 0 mm 4 mps 756 mmHg 71%
    23:00 +24°C° 0 mm 3 mps 756 mmHg 77%

    23 September, Monday

    Time Temperature Precipitation Wind Pressure Humidity
    00:00 +22°C° 0 mm 3 mps 756 mmHg 80%
    01:00 +22°C° 0 mm 3 mps 755 mmHg 83%
    02:00 +21°C° 0 mm 3 mps 755 mmHg 86%
    03:00 +21°C° 0 mm 3 mps 755 mmHg 86%
    04:00 +21°C° 0 mm 3 mps 756 mmHg 86%
    05:00 +20°C° 0 mm 2 mps 756 mmHg 87%
    06:00 +22°C° 0 mm 3 mps 756 mmHg 81%
    07:00 +24°C° 0 mm 3 mps 756 mmHg 75%
    08:00 +25°C° 0 mm 3 mps 756 mmHg 69%
    09:00 +27°C° 0 mm 3 mps 756 mmHg 59%
    10:00 +30°C° 0 mm 3 mps 756 mmHg 49%
    11:00 +33°C° 0 mm 4 mps 756 mmHg 38%
    12:00 +34°C° 0 mm 4 mps 755 mmHg 33%
    13:00 +36°C° 0 mm 4 mps 755 mmHg 27%
    14:00 +37°C° 0 mm 4 mps 754 mmHg 22%
    15:00 +37°C° 0 mm 5 mps 754 mmHg 25%
    16:00 +36°C° 0 mm 7 mps 754 mmHg 28%
    17:00 +37°C° 0 mm 9 mps 754 mmHg 31%
    18:00 +33°C° 0 mm 8 mps 755 mmHg 42%
    19:00 +29°C° 0 mm 7 mps 755 mmHg 54%
    20:00 +27°C° 0 mm 7 mps 756 mmHg 65%
    21:00 +26°C° 0 mm 6 mps 756 mmHg 71%
    22:00 +25°C° 0 mm 5 mps 756 mmHg 77%
    23:00 +23°C° 0 mm 4 mps 756 mmHg 83%

    24 September, Tuesday

    Time Temperature Precipitation Wind Pressure Humidity
    00:00 +22°C° 0 mm 4 mps 756 mmHg 86%
    01:00 +22°C° 0 mm 4 mps 756 mmHg 88%
    02:00 +21°C° 0 mm 4 mps 756 mmHg 90%
    03:00 +21°C° 0 mm 3 mps 756 mmHg 90%
    04:00 +21°C° 0 mm 3 mps 756 mmHg 90%
    05:00 +21°C° 0 mm 3 mps 756 mmHg 90%
    06:00 +22°C° 0 mm 4 mps 756 mmHg 83%
    07:00 +23°C° 0 mm 4 mps 756 mmHg 76%
    08:00 +25°C° 0 mm 4 mps 757 mmHg 69%
    09:00 +27°C° 0 mm 4 mps 756 mmHg 59%
    10:00 +29°C° 0 mm 4 mps 756 mmHg 48%
    11:00 +32°C° 0 mm 4 mps 756 mmHg 37%
    12:00 +33°C° 0 mm 4 mps 755 mmHg 32%
    13:00 +35°C° 0 mm 4 mps 755 mmHg 26%
    14:00 +37°C° 0 mm 4 mps 754 mmHg 21%
    15:00 +36°C° 0 mm 5 mps 754 mmHg 22%
    16:00 +36°C° 0 mm 6 mps 754 mmHg 24%
    17:00 +35°C° 0 mm 7 mps 754 mmHg 26%
    18:00 +32°C° 0 mm 7 mps 754 mmHg 36%
    19:00 +29°C° 0 mm 6 mps 755 mmHg 46%
    20:00 +26°C° 0 mm 6 mps 755 mmHg 57%
    21:00 +25°C° 0 mm 5 mps 755 mmHg 62%
    22:00 +23°C° 0 mm 4 mps 755 mmHg 67%
    23:00 +22°C° 0 mm 3 mps 756 mmHg 73%

    25 September, Wednesday

    Time Temperature Precipitation Wind Pressure Humidity
    00:00 +21°C° 0 mm 3 mps 755 mmHg 75%
    01:00 +21°C° 0 mm 3 mps 755 mmHg 78%
    02:00 +20°C° 0 mm 3 mps 755 mmHg 81%
    03:00 +20°C° 0 mm 2 mps 755 mmHg 82%
    04:00 +20°C° 0 mm 2 mps 755 mmHg 83%
    05:00 +20°C° 0 mm 2 mps 755 mmHg 84%
    06:00 +21°C° 0 mm 2 mps 755 mmHg 78%
    07:00 +23°C° 0 mm 2 mps 755 mmHg 73%
    08:00 +24°C° 0 mm 3 mps 756 mmHg 67%
    09:00 +27°C° 0 mm 3 mps 756 mmHg 55%
    10:00 +29°C° 0 mm 3 mps 756 mmHg 43%
    11:00 +33°C° 0 mm 3 mps 756 mmHg 32%
    12:00 +34°C° 0 mm 4 mps 755 mmHg 27%
    13:00 +36°C° 0 mm 4 mps 755 mmHg 23%
    14:00 +38°C° 0 mm 4 mps 754 mmHg 18%
    15:00 +39°C° 0 mm 5 mps 754 mmHg 18%
    16:00 +39°C° 0 mm 6 mps 754 mmHg 19%
    17:00 +39°C° 0 mm 6 mps 754 mmHg 19%
    18:00 +35°C° 0 mm 6 mps 754 mmHg 28%
    19:00 +32°C° 0 mm 6 mps 755 mmHg 36%
    20:00 +28°C° 0 mm 6 mps 756 mmHg 44%
    21:00 +27°C° 0 mm 5 mps 756 mmHg 51%
    22:00 +26°C° 0 mm 4 mps 756 mmHg 57%
    23:00 +25°C° 0 mm 4 mps 756 mmHg 63%
    Show more